Humidity-temperature Sensor

Selected Measurement Type: Relative Humidity

 
Relative Humidity [%]     6 entries per hour
Showing data from 4/5/2023 (00:00:00 Z) to 4/2/2023 (00:01:00 Z)
Previous Next [ Day | 3-Days | 7-Days ]
First Last
Prev [ Day | 3-Days | 7-Days ] Next
First Last

Start Time:     :
End Time:     :     
Time (in GMT) :00 :50 :40 :30 :20 :10
Previous Next [ Day | 3-Days | 7-Days ]
First Last
Prev [ Day | 3-Days | 7-Days ] Next
First Last


123 => good data
MM => data is determined as missing
-- => data not received/configured
Back to Top Back to Top
4/5/2023 00:00 to 23:10 81.52 82.37 81.56 79.37 81.04 80.68
4/4/2023 23:00 to 22:10 80.41 81.45 80.91 79.64 80.51 81.62
4/4/2023 22:00 to 21:10 81.58 80.45 79.68 80.14 79.78 82.18
4/4/2023 21:00 to 20:10 82.10 79.89 81.18 81.45 82.87 81.83
4/4/2023 20:00 to 19:10 81.08 81.73 81.66 82.21 78.80 80.56
4/4/2023 19:00 to 18:10 79.47 78.87 80.43 81.39 81.02 80.47
4/4/2023 18:00 to 17:10 79.58 80.74 78.49 81.48 80.95 81.43
4/4/2023 17:00 to 16:10 79.07 78.80 78.97 81.10 81.89 79.66
4/4/2023 16:00 to 15:10 79.80 80.54 78.53 80.83 79.12 81.89
4/4/2023 15:00 to 14:10 78.99 80.74 79.87 80.89 79.12 81.16
4/4/2023 14:00 to 13:10 81.58 79.39 81.43 83.63 80.89 82.75
4/4/2023 13:00 to 12:10 82.04 81.56 80.72 80.62 81.75 82.73
4/4/2023 12:00 to 11:10 82.50 82.00 80.24 81.56 82.77 82.31
4/4/2023 11:00 to 10:10 82.71 82.94 82.56 84.08 83.25 80.99
4/4/2023 10:00 to 9:10 82.73 83.73 81.31 80.70 80.37 80.14
4/4/2023 09:00 to 8:10 79.47 78.95 81.08 80.97 79.62 81.58
4/4/2023 08:00 to 7:10 79.62 80.22 79.72 81.50 81.20 78.80
4/4/2023 07:00 to 6:10 81.06 80.54 80.12 80.74 80.03 79.97
4/4/2023 06:00 to 5:10 80.33 80.31 80.43 79.14 79.85 78.39
4/4/2023 05:00 to 4:10 77.53 76.92 78.43 78.93 78.41 79.10
4/4/2023 04:00 to 3:10 80.14 79.76 79.05 81.29 80.72 78.59
4/4/2023 03:00 to 2:10 79.55 78.51 79.95 79.20 79.49 80.14
4/4/2023 02:00 to 1:10 79.45 79.64 78.87 77.91 78.49 79.07
4/4/2023 01:00 to 0:10 79.45 77.28 79.97 78.51 78.66 77.72
4/4/2023 00:00 to 23:10 78.66 79.05 81.33 83.12 81.83 82.81
4/3/2023 23:00 to 22:10 81.10 80.64 82.29 82.29 82.16 81.43
4/3/2023 22:00 to 21:10 80.58 82.31 82.71 82.12 84.15 83.65
4/3/2023 21:00 to 20:10 83.65 83.94 83.46 82.16 81.29 84.46
4/3/2023 20:00 to 19:10 83.06 81.58 81.79 80.64 81.33 80.35
4/3/2023 19:00 to 18:10 81.22 80.91 80.66 80.14 80.35 81.25
4/3/2023 18:00 to 17:10 80.72 82.06 83.50 80.58 84.15 84.52
4/3/2023 17:00 to 16:10 83.00 83.42 83.67 83.27 84.23 84.27
4/3/2023 16:00 to 15:10 83.06 84.75 83.19 83.02 83.67 84.23
4/3/2023 15:00 to 14:10 84.00 83.56 84.46 82.98 84.52 85.36
4/3/2023 14:00 to 13:10 85.30 82.60 84.13 85.40 84.54 85.57
4/3/2023 13:00 to 12:10 84.88 84.56 83.27 84.04 84.42 83.90
4/3/2023 12:00 to 11:10 83.90 83.33 82.98 85.02 84.88 84.23
4/3/2023 11:00 to 10:10 84.38 83.58 84.00 82.79 83.79 83.23
4/3/2023 10:00 to 9:10 83.21 83.02 82.73 82.64 82.06 84.25
4/3/2023 09:00 to 8:10 82.66 82.71 84.00 84.00 84.02 84.04
4/3/2023 08:00 to 7:10 83.79 82.41 82.79 83.67 81.68 83.19
4/3/2023 07:00 to 6:10 85.92 84.59 83.40 83.94 83.71 84.42
4/3/2023 06:00 to 5:10 84.13 84.08 84.40 83.98 83.25 83.29
4/3/2023 05:00 to 4:10 84.52 83.71 83.90 83.90 83.54 83.85
4/3/2023 04:00 to 3:10 84.65 83.83 82.56 83.10 83.02 84.65
4/3/2023 03:00 to 2:10 84.31 84.15 82.81 84.29 84.40 85.17
4/3/2023 02:00 to 1:10 84.94 83.06 83.63 83.04 85.17 83.71
4/3/2023 01:00 to 0:10 84.44 84.94 84.34 83.88 83.83 83.48
4/3/2023 00:00 to 23:10 82.83 83.00 83.85 82.92 82.39 84.02
4/2/2023 23:00 to 22:10 83.08 82.73 82.71 83.58 83.73 82.04
4/2/2023 22:00 to 21:10 84.52 84.08 83.50 82.56 83.15 82.48
4/2/2023 21:00 to 20:10 81.85 83.23 82.60 83.15 82.35 83.35
4/2/2023 20:00 to 19:10 82.39 82.23 83.17 83.06 83.10 83.63
4/2/2023 19:00 to 18:10 81.89 81.37 81.77 81.64 81.12 82.77
4/2/2023 18:00 to 17:10 80.26 81.96 82.85 83.21 82.06 80.66
4/2/2023 17:00 to 16:10 81.58 83.19 83.31 83.00 82.29 81.68
4/2/2023 16:00 to 15:10 82.92 82.04 81.58 81.54 82.12 83.58
4/2/2023 15:00 to 14:10 82.94 83.58 82.27 83.46 83.37 83.04
4/2/2023 14:00 to 13:10 84.92 83.44 84.40 83.96 82.27 83.63
4/2/2023 13:00 to 12:10 83.46 83.75 85.02 84.56 85.34 84.50
4/2/2023 12:00 to 11:10 85.30 85.44 85.75 85.84 85.38 84.88
4/2/2023 11:00 to 10:10 82.54 82.83 84.77 83.48 83.67 85.13
4/2/2023 10:00 to 9:10 85.13 83.94 84.27 83.44 83.48 82.44
4/2/2023 09:00 to 8:10 82.75 83.42 84.86 84.06 83.06 83.00
4/2/2023 08:00 to 7:10 83.94 83.21 83.12 83.73 82.58 83.17
4/2/2023 07:00 to 6:10 83.69 85.02 83.71 83.63 84.27 84.27
4/2/2023 06:00 to 5:10 83.23 83.42 82.96 82.25 83.50 82.21
4/2/2023 05:00 to 4:10 82.83 81.79 81.02 81.39 79.45 81.64
4/2/2023 04:00 to 3:10 82.54 82.46 83.67 82.52 82.54 82.56
4/2/2023 03:00 to 2:10 81.77 81.64 84.13 81.02 82.10 82.79
4/2/2023 02:00 to 1:10 82.56 82.08 81.29 80.45 81.89 82.62
4/2/2023 01:00 to 0:10 82.52 81.96 82.85 83.08 82.98 82.39